Wind_Speed
44 45 47 48 46 46 47 46 38 32 26 20 19 21 22 23 23 23 24 25 24 21 18 16 15 16 17 17 17 17 17 17 18 17 16 15 14 13 14 16 18 20 20
39 40 40 40 43 45 42 37 31 28 26 21 20 21 20 20 21 21 22 23 24 22 20 19 18 17 17 17 17 17 18 19 19 18 17 16 15 13 13 14 16 18 21
35 36 37 40 42 41 38 33 28 25 24 22 20 19 19 18 19 18 18 18 20 21 20 19 19 19 19 20 21 20 20 20 20 19 19 18 18 17 15 14 15 15 18
34 36 38 39 39 38 36 33 30 27 25 24 21 21 21 17 17 19 20 18 18 19 20 20 20 20 21 21 22 22 22 22 22 23 22 20 20 20 20 17 15 16 18
33 36 37 38 39 39 38 35 33 31 30 29 28 27 25 24 24 24 25 24 21 20 20 21 22 23 23 23 23 24 24 23 24 25 25 23 21 20 21 21 19 16 18
32 37 40 41 41 42 41 41 40 39 39 38 37 34 32 32 32 30 30 29 27 25 23 22 23 24 26 27 27 27 27 26 25 26 25 24 23 22 21 22 21 19 18
38 42 44 44 44 45 47 48 48 47 46 45 44 42 40 39 38 38 36 35 33 31 30 28 26 26 27 30 30 30 30 30 28 28 27 27 25 24 23 22 21 20 20
43 45 47 48 49 50 50 50 50 49 49 48 47 46 45 44 44 44 44 43 42 39 37 36 33 32 31 32 33 33 34 33 31 30 29 29 28 27 25 23 21 19 20
47 51 53 55 56 57 58 56 55 53 53 53 52 51 50 49 49 49 49 50 50 49 47 45 42 40 38 37 37 36 36 34 33 32 32 31 31 30 29 27 24 21 20
52 54 56 59 60 62 63 63 62 60 59 58 58 57 55 54 53 53 53 54 54 54 54 54 52 49 46 45 44 42 40 38 36 35 34 33 32 33 32 31 29 25 22
53 55 57 59 61 63 65 67 68 68 67 67 66 65 63 61 59 58 57 57 57 57 57 57 56 55 53 53 52 49 47 45 42 40 38 36 35 34 33 32 31 29 25
55 58 59 61 62 64 67 70 72 74 75 74 73 71 69 67 65 64 63 62 61 61 60 61 61 60 58 56 56 55 53 51 49 46 43 41 38 36 34 33 31 30 26
58 60 62 64 66 68 70 72 72 71 68 65 62 61 60 59 58 59 61 62 64 65 66 65 65 64 63 60 59 58 56 55 53 51 48 44 40 37 35 33 31 29 26
61 64 67 69 69 68 66 63 58 54 51 49 47 45 44 41 37 37 40 45 51 58 65 69 70 70 68 65 63 60 57 56 53 51 49 45 41 38 36 33 31 29 27
64 65 64 61 57 53 51 49 49 50 49 46 42 38 34 31 28 28 29 31 34 39 46 54 62 68 71 71 70 66 62 57 54 51 48 46 43 41 39 36 32 29 28
59 56 53 51 51 51 53 53 53 52 50 47 43 39 36 35 35 36 35 34 34 35 36 39 44 51 59 67 72 72 67 62 57 52 49 47 45 44 42 39 35 31 28
53 52 52 53 54 56 57 58 58 57 55 52 49 46 45 44 45 44 43 40 38 36 35 34 35 38 44 53 62 69 71 67 61 55 51 48 46 45 44 42 39 33 28
52 53 54 55 56 58 59 61 61 60 58 56 55 53 53 52 51 49 48 46 44 41 38 36 34 33 35 40 47 57 66 69 66 60 54 49 45 44 44 44 41 34 29
53 56 57 58 60 62 63 64 62 60 58 57 56 56 57 56 55 52 50 48 46 44 42 40 37 34 32 33 36 41 52 60 64 62 56 51 47 44 43 44 43 37 31
55 57 59 61 63 64 64 62 58 56 54 52 50 50 53 55 55 54 52 49 47 44 42 42 40 37 34 31 30 31 38 48 56 59 56 52 49 45 43 43 43 40 32
55 58 60 63 65 64 60 56 53 51 50 47 44 43 43 46 49 50 50 49 48 44 43 43 41 38 34 32 30 27 28 37 47 54 55 54 52 49 46 44 44 41 35
54 57 61 64 65 62 57 53 51 50 47 43 39 36 35 36 39 42 44 45 45 44 42 42 41 39 36 35 33 29 25 27 38 50 55 55 52 49 47 45 44 41 35
53 57 61 64 64 61 56 52 50 48 43 36 31 28 26 26 28 31 34 36 38 39 39 39 38 38 38 37 34 30 25 23 30 44 52 53 51 48 46 44 42 40 35
52 57 61 63 63 60 56 52 49 45 39 31 25 22 21 21 22 24 25 27 30 32 33 34 34 36 37 36 34 32 27 22 24 37 47 52 52 49 47 45 42 39 34
53 58 61 63 62 60 56 51 48 45 39 30 24 20 19 19 18 19 20 21 23 25 28 30 31 33 35 34 33 32 28 23 23 33 44 51 52 50 46 45 43 39 34
53 57 60 61 61 59 55 51 49 47 42 33 23 17 14 14 14 14 15 16 17 20 23 26 28 31 33 33 33 32 30 26 24 31 39 48 51 49 47 46 44 40 33
Wind_Direction
287 293 298 303 305 307 311 312 307 310 316 321 324 320 300 286 282 284 287 286 281 278 274 269 265 262 258 251 245 248 250 248 245 248 255 263 270 282 291 292 286 281 276
285 292 299 302 305 309 311 311 312 314 321 324 324 325 314 297 289 289 287 281 273 268 266 266 261 258 253 248 245 248 250 250 246 247 252 260 270 282 294 300 293 281 272
284 291 296 300 302 305 308 312 317 322 323 322 321 321 320 302 288 288 289 280 268 260 258 258 257 253 248 244 244 246 248 250 246 246 256 263 275 282 290 299 301 293 280
289 293 295 297 298 301 306 311 314 316 314 313 313 313 315 303 288 289 290 287 274 264 258 255 252 250 248 245 245 247 249 250 254 258 261 266 269 275 284 289 295 295 289
293 295 298 300 300 302 305 308 309 310 309 306 303 302 299 294 289 288 284 281 278 268 259 252 247 246 246 245 246 248 249 252 262 268 267 268 269 270 279 288 291 290 287
295 298 301 303 304 305 306 307 306 305 305 303 300 295 290 285 283 281 279 273 270 269 266 259 251 245 245 246 247 250 252 255 264 270 271 271 274 277 279 283 287 290 287
299 300 302 304 304 304 305 305 304 302 301 299 297 294 289 284 281 277 274 270 267 265 264 261 256 253 251 250 250 252 254 258 263 268 270 270 274 279 282 281 279 283 286
304 304 304 304 302 300 301 301 300 298 295 293 290 288 286 283 279 276 273 269 267 264 261 258 255 253 254 254 253 253 254 256 260 264 266 267 269 275 279 280 277 275 280
305 306 306 305 304 303 303 301 298 296 293 291 289 285 281 278 274 272 269 267 266 264 261 257 256 252 250 251 252 253 254 255 258 260 262 264 267 271 275 276 276 276 279
311 310 308 307 307 305 303 301 300 297 295 292 290 287 283 278 273 268 265 263 262 261 260 259 257 255 250 248 250 251 253 255 257 259 260 262 266 270 272 273 273 276 279
311 310 309 308 306 304 302 301 299 297 295 293 290 287 283 278 275 271 267 262 259 256 256 256 256 255 252 249 248 249 252 254 256 258 260 261 264 267 269 270 272 275 278
312 311 309 307 304 302 299 298 297 296 295 294 291 288 285 280 276 271 267 262 258 255 253 253 254 254 253 250 249 248 249 251 254 257 258 259 261 262 263 266 269 272 274
313 311 308 306 303 301 299 298 297 297 296 296 295 293 289 285 279 273 268 262 257 254 251 250 251 252 252 251 249 248 247 248 250 252 254 255 257 258 257 260 263 265 267
315 312 309 307 304 303 302 301 301 300 299 298 298 297 295 290 282 275 269 263 258 254 251 249 249 249 250 250 248 247 245 245 246 248 248 249 250 253 252 254 258 258 260
315 312 311 310 308 307 305 303 301 299 298 295 293 291 290 286 280 277 276 273 268 261 255 251 249 248 248 248 247 246 244 242 242 243 244 245 246 247 248 250 253 254 254
318 318 318 315 311 308 305 303 301 299 295 291 286 280 275 274 275 277 278 277 275 271 265 261 257 251 247 245 245 245 243 241 239 240 242 245 246 244 244 246 249 249 250
323 321 317 314 311 308 305 302 299 296 291 286 281 275 270 269 271 273 275 276 275 272 268 266 264 259 253 247 243 242 241 240 238 237 239 242 244 243 242 242 243 244 246
324 323 321 318 314 311 307 302 298 294 289 283 277 273 270 269 269 269 270 270 271 268 263 260 261 261 256 251 246 241 238 237 236 235 234 235 239 239 239 237 237 240 242
327 326 325 322 319 315 310 306 302 298 291 284 277 271 267 265 265 265 265 265 265 265 260 254 252 252 253 253 250 246 239 234 232 230 229 229 232 234 234 232 233 236 239
328 328 328 326 324 320 315 312 309 305 300 292 284 276 267 262 260 259 259 259 260 260 257 251 246 245 245 247 248 247 243 234 226 223 222 222 224 226 229 229 230 233 236
331 332 333 332 330 326 322 318 315 313 307 300 291 281 273 263 258 256 255 255 255 255 253 248 242 239 237 238 241 245 247 235 223 215 213 215 219 222 226 228 228 231 233
336 338 338 338 336 333 328 324 321 318 314 306 297 288 278 266 259 256 254 253 252 250 248 244 239 235 231 230 234 239 244 239 221 209 206 210 214 219 224 226 226 227 230
340 343 344 343 341 340 336 332 330 327 321 313 304 294 282 271 264 259 255 251 248 245 242 240 237 231 227 226 228 232 237 239 222 206 201 203 206 212 216 219 221 222 224
343 347 347 347 347 346 345 343 341 339 334 324 311 297 286 277 269 261 254 248 244 241 238 235 233 227 222 221 223 226 230 232 220 203 196 195 199 205 210 214 216 217 217
346 349 350 351 352 352 352 352 352 351 346 336 321 308 293 279 269 260 251 244 239 235 230 227 224 219 216 214 216 220 223 225 217 202 195 191 192 198 205 210 212 211 211
349 352 354 355 355 356 357 358 358 357 355 349 337 322 306 286 270 257 246 237 232 227 220 214 211 210 210 212 214 216 219 220 217 206 196 192 191 195 201 206 208 207 207
Height
5858 5856 5853 5850 5845 5841 5837 5834 5827 5821 5818 5820 5819 5819 5819 5819 5818 5816 5815 5814 5814 5813 5813 5813 5813 5813 5814 5814 5815 5816 5816 5817 5817 5818 5818 5817 5817 5816 5815 5813 5811 5810 5810
5858 5854 5850 5845 5841 5837 5833 5828 5822 5818 5815 5814 5814 5814 5813 5812 5810 5809 5808 5807 5807 5807 5807 5807 5807 5807 5807 5808 5809 5810 5811 5812 5813 5813 5813 5813 5812 5811 5810 5808 5806 5805 5804
5856 5852 5847 5842 5837 5832 5828 5823 5818 5814 5811 5810 5810 5809 5807 5806 5805 5804 5803 5802 5801 5801 5800 5800 5800 5800 5801 5803 5804 5804 5805 5806 5807 5808 5809 5808 5807 5806 5806 5804 5802 5800 5798
5849 5845 5840 5835 5830 5826 5822 5817 5813 5810 5807 5806 5804 5802 5801 5801 5801 5800 5799 5798 5796 5794 5793 5793 5794 5795 5796 5797 5799 5800 5800 5801 5801 5803 5803 5804 5803 5802 5800 5800 5797 5795 5793
5840 5836 5831 5826 5822 5818 5814 5810 5807 5803 5801 5798 5797 5795 5794 5794 5794 5794 5793 5791 5790 5788 5787 5787 5787 5788 5790 5791 5792 5794 5795 5795 5796 5797 5797 5797 5797 5797 5796 5793 5792 5790 5788
5832 5826 5822 5818 5813 5808 5804 5801 5797 5794 5792 5790 5788 5787 5786 5785 5784 5784 5784 5783 5782 5781 5780 5780 5780 5780 5782 5783 5785 5786 5788 5788 5789 5790 5791 5791 5790 5790 5790 5789 5786 5785 5783
5823 5818 5812 5807 5802 5798 5794 5790 5787 5784 5781 5779 5777 5775 5775 5774 5773 5772 5772 5772 5771 5771 5772 5771 5771 5772 5773 5774 5776 5777 5779 5780 5781 5782 5783 5783 5783 5783 5783 5783 5782 5780 5777
5812 5807 5802 5797 5792 5787 5783 5779 5775 5770 5767 5765 5764 5762 5761 5760 5759 5759 5758 5758 5759 5759 5759 5760 5761 5762 5763 5765 5767 5768 5770 5771 5772 5773 5774 5775 5776 5776 5776 5776 5776 5775 5772
5801 5795 5788 5782 5776 5771 5766 5762 5759 5755 5751 5748 5746 5745 5744 5743 5743 5742 5742 5742 5743 5744 5745 5746 5748 5750 5752 5754 5756 5758 5759 5761 5762 5763 5764 5766 5767 5768 5768 5769 5770 5770 5768
5788 5782 5774 5767 5760 5753 5746 5741 5738 5736 5734 5731 5728 5725 5723 5723 5723 5723 5723 5723 5724 5725 5727 5729 5732 5735 5738 5740 5743 5746 5748 5750 5751 5752 5754 5756 5757 5758 5760 5761 5762 5763 5763
5778 5771 5763 5755 5747 5738 5730 5723 5717 5712 5709 5707 5704 5703 5702 5701 5701 5701 5701 5703 5704 5706 5708 5710 5713 5716 5721 5725 5729 5732 5735 5737 5740 5742 5744 5746 5748 5749 5750 5752 5753 5755 5756
5767 5759 5750 5742 5733 5725 5717 5708 5699 5692 5685 5680 5676 5674 5673 5673 5674 5676 5677 5679 5681 5684 5686 5689 5693 5696 5701 5706 5712 5717 5721 5724 5727 5730 5733 5736 5739 5740 5741 5743 5744 5746 5748
5755 5745 5735 5726 5716 5707 5698 5689 5681 5673 5666 5659 5653 5648 5645 5644 5645 5647 5649 5652 5655 5659 5663 5667 5671 5676 5681 5686 5692 5698 5704 5708 5712 5716 5721 5725 5728 5730 5732 5734 5736 5738 5740
5740 5729 5719 5708 5698 5688 5678 5670 5662 5655 5648 5643 5638 5633 5628 5625 5624 5625 5625 5627 5629 5634 5638 5643 5648 5654 5660 5666 5672 5678 5685 5691 5697 5702 5707 5712 5716 5719 5722 5725 5727 5730 5732
5727 5715 5703 5693 5683 5673 5665 5657 5650 5643 5636 5631 5626 5621 5617 5615 5614 5613 5613 5613 5612 5613 5615 5619 5623 5629 5637 5644 5650 5657 5665 5673 5680 5687 5693 5699 5704 5708 5712 5716 5719 5722 5725
5713 5701 5690 5680 5671 5662 5653 5645 5637 5629 5622 5617 5613 5609 5606 5604 5602 5601 5601 5600 5600 5599 5600 5601 5604 5607 5613 5620 5627 5635 5644 5654 5663 5671 5679 5685 5691 5696 5701 5705 5710 5713 5717
5701 5691 5680 5670 5660 5650 5640 5630 5621 5613 5607 5601 5597 5593 5591 5589 5587 5586 5586 5586 5587 5587 5587 5588 5589 5591 5594 5598 5604 5612 5622 5633 5644 5655 5664 5671 5678 5683 5689 5695 5700 5705 5709
5690 5679 5668 5657 5646 5635 5623 5612 5603 5594 5587 5581 5577 5574 5572 5571 5570 5570 5570 5570 5571 5572 5574 5575 5577 5579 5580 5582 5586 5591 5600 5612 5625 5637 5648 5656 5664 5671 5677 5684 5690 5696 5701
5678 5666 5654 5642 5629 5616 5603 5591 5581 5571 5563 5557 5553 5551 5550 5550 5550 5551 5552 5553 5555 5556 5559 5562 5564 5567 5570 5571 5573 5577 5582 5592 5605 5619 5631 5642 5651 5659 5666 5673 5681 5687 5693
5668 5656 5643 5629 5614 5599 5584 5570 5559 5548 5540 5534 5530 5527 5526 5527 5528 5530 5533 5535 5538 5540 5543 5547 5550 5555 5559 5562 5564 5567 5570 5577 5588 5601 5615 5628 5638 5647 5655 5663 5671 5678 5684
5659 5645 5631 5616 5600 5582 5566 5552 5540 5529 5520 5512 5507 5505 5504 5504 5506 5509 5513 5516 5520 5524 5528 5532 5537 5542 5548 5553 5556 5559 5561 5564 5572 5585 5600 5613 5625 5635 5644 5652 5661 5668 5675
5650 5637 5622 5605 5587 5568 5552 5538 5526 5514 5503 5494 5489 5486 5485 5486 5488 5491 5494 5498 5502 5507 5512 5517 5524 5530 5537 5543 5547 5551 5553 5555 5561 5571 5586 5600 5612 5623 5632 5641 5650 5659 5667
5642 5628 5612 5595 5577 5558 5541 5527 5514 5501 5490 5481 5475 5472 5471 5472 5474 5476 5479 5482 5487 5492 5498 5504 5512 5519 5526 5532 5538 5543 5546 5549 5552 5560 5574 5588 5601 5612 5622 5631 5640 5649 5658
5635 5621 5605 5588 5570 5552 5534 5519 5505 5492 5480 5472 5466 5463 5462 5462 5463 5464 5467 5470 5475 5480 5487 5494 5501 5508 5516 5523 5530 5535 5540 5544 5547 5554 5564 5578 5591 5602 5612 5622 5631 5641 5649
5629 5614 5598 5581 5564 5546 5530 5514 5500 5486 5475 5465 5460 5456 5454 5454 5454 5456 5458 5461 5466 5471 5477 5484 5491 5499 5507 5516 5522 5528 5534 5539 5543 5549 5557 5569 5581 5593 5603 5614 5623 5632 5641
5625 5610 5594 5578 5561 5544 5528 5513 5498 5484 5472 5461 5455 5451 5448 5448 5448 5450 5452 5455 5460 5464 5470 5477 5484 5492 5500 5508 5516 5522 5529 5534 5539 5545 5552 5562 5573 5585 5595 5606 5616 5625 5634